sat.trackr.live / text

‹ back to catalog

HULIANWANG DIGUI-126

NORAD 67066 · 2025-295H

PAYLOAD ACTIVE UNKNOWN

§ Identity

Operator
Country
PRC
Launch date
2025-12-11
Launch site
WSC
Launch vehicle
Mass (kg)
RCS (m²)

External: N2YO · Heavens-Above · Gunter

§ Orbital elements

Epoch: 2026-05-25T04:02:28.038912Z

Period
108.33 min
Inclination
49.9979°
Eccentricity
0.0000921
Mean motion
13.29327339 rev/d
Perigee alt
1,148.6 km
Apogee alt
1,150.0 km
Semi-major
7,527.4 km
B*
9.1234e-5
RAAN
107.7558°
Arg perigee
354.2909°
Mean anomaly
5.7952°
Rev number
2,244

§ Raw data

HULIANWANG DIGUI-1261 67066U 25295H   26145.16838008 -.00000082  00000+0  91234-4 0  99932 67066  49.9979 107.7558 0000921 354.2909   5.7952 13.29327339 22443

JSON: /api/v1/satellites/67066 · /tle

For live sub-satellite position, see the globe view (requires WebGL).

§ Visibility from observer

Set your observer location to see the next 7 days of passes ≥ 10°. The values pass through the URL so the page stays shareable.

No JS? Fill the form by hand. The geolocation button needs JavaScript.